sat.trackr.live / text

‹ back to catalog

2023-117F

NORAD 57585 · 2023-117F

PAYLOAD ACTIVE UNKNOWN

§ Identity

Operator
Country
PRC
Launch date
2023-08-10
Launch site
JSC
Launch vehicle
Mass (kg)
RCS (m²)

External: N2YO · Heavens-Above · Gunter

§ Orbital elements

Epoch: 2026-05-25T04:57:30.031776Z

Period
93.26 min
Inclination
97.4190°
Eccentricity
0.0004704
Mean motion
15.44048863 rev/d
Perigee alt
431.0 km
Apogee alt
437.4 km
Semi-major
6,812.3 km
B*
4.4252e-4
RAAN
230.7780°
Arg perigee
307.6830°
Mean anomaly
52.3991°
Rev number
15,530

§ Raw data

2023-117F1 57585U 23117F   26145.20659759  .00020146  00000+0  44252-3 0  99972 57585  97.4190 230.7780 0004704 307.6830  52.3991 15.44048863155307

JSON: /api/v1/satellites/57585 · /tle

For live sub-satellite position, see the globe view (requires WebGL).

§ Visibility from observer

Set your observer location to see the next 7 days of passes ≥ 10°. The values pass through the URL so the page stays shareable.

No JS? Fill the form by hand. The geolocation button needs JavaScript.